Regional Weather Roundup
Issued by NWS State College, PA

Home | Current Version | Previous Version | Text Only | Print | Product List | Glossary On
Versions: 1 2 3 4 5 6 7 8 9 10 11 12 13 14 15 16 17 18 19 20 21 22 23 24 25 26 27 28 29 30 31 32 33 34 35 36 37 38 39 40 41 42 43 44 45 46 47 48 49 50
000
ASUS41 KCTP 291710
RWRCTP

REGIONAL WEATHER ROUNDUP
NATIONAL WEATHER SERVICE STATE COLLEGE PA
100 PM EDT FRI MAY 29 2015

Note: "fair" indicates few or no clouds below 12,000 feet with no
significant weather and/or obstructions to visibility.

* = STATION THAT DOES NOT REPORT PRECIPITATION /E.G. RAIN...SNOW...ETC/
    THUNDER OR FOG.

PAZ002>004-007>009-013>016-020>023-029>032-291800-
WESTERN PENNSYLVANIA

CITY           SKY/WX    TMP DP  RH WIND       PRES   REMARKS
ERIE           PTSUNNY   83  62  49 S9        30.16F
MEADVILLE      PTSUNNY   79  61  53 S7        30.20F
FRANKLIN*      PTSUNNY   79  61  53 S13       30.23F
NEW CASTLE     FAIR      83  66  56 VRB5      30.19F
BEAVER COUNTY  SUNNY     82  63  51 SE10      30.20F
BUTLER*        MOSUNNY   82  63  51 S9G17     30.22F
PITTSBURGH INT CLOUDY    83  62  49 S8        30.20F
PITTSBURGH     MOSUNNY   81  57  43 S5        30.20F
INDIANA*       SUNNY     81  63  54 S12G18    30.27F
LATROBE        MOSUNNY   82  63  51 S16       30.24F
WASHINGTON CO* MOSUNNY   82  66  57 S7        30.23S
$$

PAZ004>006-010>012-017>019-024>028-033>037-041-042-045-046-049>053-291800-
CENTRAL PENNSYLVANIA

CITY           SKY/WX    TMP DP  RH WIND       PRES   REMARKS
BRADFORD       MOSUNNY   76  55  48 S9        30.26F
DUBOIS         SUNNY     81  56  42 VRB6G17   30.25F
CLEARFIELD     SUNNY     79  56  45 VRB5      30.27F
JOHNSTOWN      SUNNY     75  59  57 S12       30.29F
ALTOONA        SUNNY     79  58  48 S10G17    30.29F
STATE COLLEGE  SUNNY     77  55  47 SW7       30.28S
WILLIAMSPORT   SUNNY     79  54  41 S9        30.25F
SELINSGROVE    SUNNY     82  56  40 SE8       30.27F
FT INDIANTOWN  SUNNY     78  60  53 S6        30.27F
CAPITAL CITY   SUNNY     79  59  50 E8        30.26F
HARRISBURG     SUNNY     80  60  50 SE5       30.26F
YORK           SUNNY     80  63  55 CALM      30.27F
$$

PAZ038>040-043-044-047-048-054-055-060>062-067>071-291800-
EASTERN PENNSYLVANIA

CITY           SKY/WX    TMP DP  RH WIND       PRES   REMARKS
SCRANTON       SUNNY     80  55  42 W6        30.27F
MOUNT POCONO   SUNNY     74  52  46 MISG      30.32F
ALLENTOWN      SUNNY     83  54  36 NW3       30.27F
QUAKERTOWN*    SUNNY     82  57  42 CALM      30.28F
READING        SUNNY     83  56  39 VRB6      30.26F
LANCASTER      MOSUNNY   83  58  42 SE7       30.26F
COATESVILLE    SUNNY     77  63  61 CALM      30.29F
POTTSTOWN      SUNNY     80  56  43 VRB3      30.28F
BLUE BELL      SUNNY     82  61  47 E7        30.26F
DOYLESTOWN     SUNNY     79  56  45 CALM      30.27F
WILLOW GROVE   NOT AVBL
NORTH PHILA    SUNNY     83  55  38 S5        30.27F
PHILADELPHIA   MOSUNNY   83  58  42 NE5       30.26F
$$



USA.gov is the U.S. government's official web portal to all federal, state and local government web resources and services.